Radiation Dose at Monitoring Post of Fukushima Daini Nuclear Power Station
Date,Time,MP-1(microSv/h),MP-2(microSv/h),MP-3(microSv/h),MP-4(microSv/h),MP-5(microSv/h),MP-6(microSv/h),MP-7(microSv/h),Wind Direction,Wind Velocity(m/s),Rain
2017/11/26,00:00,0.335,0.212,0.349,0.329,0.312,0.171,0.102,south-southwest,4.3,No
2017/11/26,00:10,0.334,0.212,0.350,0.328,0.311,0.171,0.102,south-southwest,4.2,No
2017/11/26,00:20,0.334,0.213,0.350,0.329,0.311,0.172,0.101,south-southwest,4.8,No
2017/11/26,00:30,0.335,0.214,0.350,0.328,0.310,0.172,0.101,south-southwest,5.9,No
2017/11/26,00:40,0.336,0.212,0.350,0.328,0.313,0.171,0.102,south-southwest,6.6,No
2017/11/26,00:50,0.335,0.212,0.350,0.328,0.310,0.173,0.102,south,6.7,No
2017/11/26,01:00,0.334,0.213,0.349,0.329,0.311,0.171,0.102,south,7.6,No
2017/11/26,01:10,0.335,0.212,0.350,0.329,0.312,0.171,0.102,south-southwest,7.8,No
2017/11/26,01:20,0.335,0.212,0.351,0.329,0.311,0.171,0.102,south-southwest,9.2,No
2017/11/26,01:30,0.334,0.211,0.350,0.329,0.312,0.171,0.102,south-southwest,9.2,No
2017/11/26,01:40,0.334,0.212,0.351,0.328,0.311,0.172,0.102,south-southwest,8.5,No
2017/11/26,01:50,0.335,0.211,0.349,0.329,0.311,0.172,0.103,south-southwest,9.0,No
2017/11/26,02:00,0.335,0.213,0.350,0.330,0.312,0.172,0.102,south-southwest,9.0,No
2017/11/26,02:10,0.332,0.213,0.350,0.331,0.310,0.171,0.103,south-southwest,9.2,No
2017/11/26,02:20,0.334,0.213,0.350,0.329,0.312,0.171,0.103,south-southwest,9.2,No
2017/11/26,02:30,0.335,0.213,0.349,0.327,0.312,0.171,0.101,south-southwest,9.5,No
2017/11/26,02:40,0.333,0.213,0.348,0.329,0.312,0.171,0.101,south-southwest,9.2,No
2017/11/26,02:50,0.335,0.213,0.349,0.330,0.313,0.170,0.103,south-southwest,10.6,No
2017/11/26,03:00,0.334,0.212,0.350,0.329,0.312,0.172,0.102,south-southwest,9.3,No
2017/11/26,03:10,0.333,0.213,0.350,0.329,0.312,0.171,0.102,south-southwest,9.2,No
2017/11/26,03:20,0.334,0.214,0.349,0.330,0.312,0.172,0.101,south-southwest,10.7,No
2017/11/26,03:30,0.336,0.213,0.350,0.330,0.310,0.171,0.102,south-southwest,10.1,No
2017/11/26,03:40,0.334,0.213,0.350,0.330,0.310,0.172,0.102,south-southwest,10.0,No
2017/11/26,03:50,0.334,0.213,0.349,0.329,0.312,0.172,0.102,south-southwest,9.3,No
2017/11/26,04:00,0.335,0.214,0.350,0.328,0.312,0.171,0.103,south-southwest,9.0,No
2017/11/26,04:10,0.334,0.213,0.349,0.330,0.312,0.171,0.102,south-southwest,10.1,No
2017/11/26,04:20,0.334,0.211,0.349,0.329,0.312,0.171,0.103,south-southwest,10.1,No
2017/11/26,04:30,0.333,0.212,0.349,0.328,0.311,0.172,0.102,south,10.3,No
2017/11/26,04:40,0.335,0.214,0.350,0.329,0.311,0.171,0.102,south,10.4,No
2017/11/26,04:50,0.334,0.213,0.348,0.329,0.312,0.171,0.102,south,10.4,No
2017/11/26,05:00,0.333,0.213,0.349,0.328,0.311,0.172,0.102,south,9.8,No
2017/11/26,05:10,0.333,0.213,0.351,0.328,0.311,0.172,0.102,south,10.1,No
2017/11/26,05:20,0.334,0.213,0.350,0.329,0.311,0.172,0.103,south,9.5,No
2017/11/26,05:30,0.334,0.212,0.349,0.328,0.311,0.172,0.102,south,9.5,No
2017/11/26,05:40,0.334,0.213,0.348,0.327,0.310,0.171,0.102,south-southwest,9.5,No
2017/11/26,05:50,0.335,0.214,0.351,0.329,0.310,0.171,0.102,south-southwest,8.7,No
2017/11/26,06:00,0.334,0.213,0.349,0.328,0.313,0.171,0.102,south-southwest,8.4,No
2017/11/26,06:10,0.333,0.213,0.349,0.328,0.311,0.171,0.102,south-southwest,7.6,No
2017/11/26,06:20,0.334,0.213,0.350,0.329,0.312,0.171,0.102,south-southwest,7.3,No
2017/11/26,06:30,0.334,0.213,0.349,0.328,0.311,0.171,0.102,south-southwest,7.8,No
2017/11/26,06:40,0.334,0.212,0.348,0.330,0.310,0.172,0.101,south-southwest,8.1,No
2017/11/26,06:50,0.333,0.213,0.351,0.328,0.310,0.171,0.102,south-southwest,8.1,No
2017/11/26,07:00,0.335,0.212,0.350,0.329,0.311,0.172,0.102,south-southwest,9.0,No
2017/11/26,07:10,0.334,0.213,0.349,0.330,0.312,0.172,0.103,south-southwest,8.2,No
2017/11/26,07:20,0.333,0.212,0.348,0.328,0.310,0.171,0.102,south-southwest,8.7,No
2017/11/26,07:30,0.332,0.213,0.348,0.329,0.310,0.171,0.102,south-southwest,7.3,No
2017/11/26,07:40,0.335,0.214,0.349,0.329,0.311,0.172,0.102,south-southwest,6.3,No
2017/11/26,07:50,0.335,0.212,0.347,0.328,0.312,0.172,0.102,south-southwest,5.0,No
2017/11/26,08:00,0.333,0.211,0.350,0.328,0.311,0.171,0.103,south,5.4,No
2017/11/26,08:10,0.333,0.213,0.348,0.328,0.311,0.171,0.102,south,5.2,No
2017/11/26,08:20,0.335,0.214,0.349,0.328,0.311,0.172,0.101,south,5.5,No
2017/11/26,08:30,0.335,0.213,0.351,0.329,0.311,0.171,0.102,south,6.8,No
2017/11/26,08:40,0.334,0.212,0.349,0.328,0.312,0.170,0.102,south,6.0,No
2017/11/26,08:50,0.335,0.212,0.349,0.328,0.311,0.170,0.101,south-southwest,5.4,No
2017/11/26,09:00,0.333,0.212,0.349,0.328,0.312,0.172,0.102,southwest,5.8,No
2017/11/26,09:10,0.333,0.212,0.349,0.329,0.311,0.172,0.102,southwest,3.7,No
2017/11/26,09:20,0.336,0.213,0.349,0.327,0.311,0.171,0.102,southwest,3.4,No
2017/11/26,09:30,0.333,0.210,0.349,0.329,0.312,0.171,0.101,west-southwest,2.8,No
2017/11/26,09:40,0.335,0.212,0.348,0.326,0.310,0.171,0.102,west-southwest,4.5,No
2017/11/26,09:50,0.332,0.211,0.349,0.327,0.312,0.172,0.101,southwest,4.0,No
2017/11/26,10:00,0.332,0.211,0.350,0.326,0.310,0.171,0.102,west-southwest,5.1,No
2017/11/26,10:10,0.330,0.212,0.348,0.329,0.310,0.171,0.101,west-southwest,7.5,No
2017/11/26,10:20,0.332,0.212,0.350,0.325,0.313,0.171,0.102,west,7.3,No
2017/11/26,10:30,0.329,0.212,0.349,0.329,0.309,0.171,0.102,west,7.7,No
2017/11/26,10:40,0.333,0.211,0.349,0.327,0.314,0.171,0.102,west-southwest,8.5,No
2017/11/26,10:50,0.333,0.212,0.348,0.328,0.309,0.171,0.102,west-southwest,6.1,No
2017/11/26,11:00,0.331,0.212,0.348,0.327,0.312,0.172,0.102,west-southwest,5.6,No
2017/11/26,11:10,0.334,0.212,0.349,0.326,0.311,0.172,0.102,west-southwest,4.9,No
2017/11/26,11:20,0.330,0.213,0.349,0.329,0.312,0.171,0.102,west-southwest,4.8,No
2017/11/26,11:30,0.335,0.212,0.348,0.325,0.313,0.172,0.102,southwest,3.4,No
2017/11/26,11:40,0.331,0.213,0.348,0.329,0.309,0.173,0.102,southwest,2.8,No
2017/11/26,11:50,0.334,0.212,0.351,0.327,0.313,0.172,0.102,southwest,4.0,No
2017/11/26,12:00,0.335,0.213,0.349,0.328,0.310,0.172,0.101,southwest,2.2,No
2017/11/26,12:10,0.331,0.213,0.348,0.330,0.311,0.172,0.102,south-southeast,5.0,No
2017/11/26,12:20,0.332,0.212,0.348,0.325,0.313,0.171,0.103,south,5.7,No
2017/11/26,12:30,0.334,0.212,0.346,0.329,0.309,0.172,0.102,south,5.7,No
2017/11/26,12:40,0.331,0.212,0.351,0.329,0.310,0.171,0.102,south,4.8,No
2017/11/26,12:50,0.335,0.212,0.348,0.327,0.310,0.172,0.102,south-southwest,3.1,No
2017/11/26,13:00,0.333,0.211,0.350,0.330,0.313,0.173,0.102,southwest,2.7,No
2017/11/26,13:10,0.334,0.213,0.348,0.328,0.312,0.172,0.102,west-southwest,3.6,No
2017/11/26,13:20,0.335,0.213,0.348,0.325,0.312,0.172,0.103,west-northwest,4.8,No
2017/11/26,13:30,0.332,0.211,0.350,0.329,0.314,0.172,0.102,west-northwest,3.4,No
2017/11/26,13:40,0.337,0.213,0.348,0.327,0.310,0.173,0.102,west-northwest,3.1,No
2017/11/26,13:50,0.334,0.211,0.349,0.325,0.311,0.172,0.101,west-northwest,2.4,No
2017/11/26,14:00,0.334,0.212,0.349,0.329,0.313,0.173,0.103,west-northwest,2.8,No
2017/11/26,14:10,0.333,0.212,0.351,0.329,0.309,0.172,0.103,west,3.8,No
2017/11/26,14:20,0.334,0.211,0.351,0.327,0.311,0.171,0.103,west,3.2,No
2017/11/26,14:30,0.332,0.213,0.350,0.330,0.313,0.170,0.103,northwest,2.7,No
2017/11/26,14:40,0.337,0.211,0.350,0.328,0.312,0.172,0.102,northwest,3.2,No
2017/11/26,14:50,0.333,0.214,0.352,0.329,0.316,0.171,0.102,northwest,1.8,No
2017/11/26,15:00,0.335,0.213,0.349,0.328,0.313,0.171,0.101,west-northwest,0.7,No
2017/11/26,15:10,0.335,0.214,0.352,0.330,0.314,0.171,0.102,west-northwest,2.7,No
2017/11/26,15:20,0.333,0.214,0.350,0.328,0.314,0.172,0.103,north-northwest,1.6,No
2017/11/26,15:30,0.333,0.212,0.351,0.330,0.314,0.172,0.101,north-northwest,2.6,No
2017/11/26,15:40,0.334,0.214,0.350,0.329,0.313,0.171,0.102,north-northwest,2.6,No
2017/11/26,15:50,0.335,0.215,0.350,0.330,0.313,0.173,0.102,north,1.9,No
2017/11/26,16:00,0.334,0.213,0.351,0.329,0.315,0.172,0.102,north-northeast,2.4,No
2017/11/26,16:10,0.336,0.214,0.349,0.329,0.313,0.172,0.102,north,5.0,No
2017/11/26,16:20,0.335,0.212,0.352,0.330,0.314,0.173,0.103,north,5.1,No
2017/11/26,16:30,0.334,0.214,0.350,0.330,0.313,0.172,0.102,north-northwest,2.2,No
2017/11/26,16:40,0.337,0.213,0.350,0.329,0.314,0.172,0.102,northwest,3.3,No
2017/11/26,16:50,0.334,0.212,0.351,0.330,0.315,0.173,0.102,west-northwest,3.1,No
2017/11/26,17:00,0.334,0.214,0.349,0.330,0.312,0.172,0.103,west-northwest,1.9,No
2017/11/26,17:10,0.336,0.212,0.350,0.330,0.312,0.172,0.102,west-northwest,2.8,No
2017/11/26,17:20,0.335,0.212,0.350,0.328,0.313,0.174,0.102,west,2.0,No
2017/11/26,17:30,0.336,0.213,0.351,0.331,0.311,0.172,0.102,northwest,0.6,No
2017/11/26,17:40,0.334,0.213,0.351,0.330,0.314,0.172,0.103,west-northwest,1.0,No
2017/11/26,17:50,0.336,0.214,0.352,0.329,0.312,0.173,0.102,northwest,1.7,No
2017/11/26,18:00,0.336,0.213,0.349,0.330,0.312,0.173,0.102,northwest,2.1,No
2017/11/26,18:10,0.335,0.212,0.351,0.329,0.313,0.171,0.102,northwest,2.4,No
2017/11/26,18:20,0.334,0.213,0.351,0.329,0.312,0.173,0.101,northwest,2.4,No
2017/11/26,18:30,0.336,0.213,0.350,0.329,0.313,0.173,0.102,northwest,2.8,No
2017/11/26,18:40,0.336,0.212,0.351,0.330,0.313,0.172,0.102,northwest,2.7,No
2017/11/26,18:50,0.334,0.212,0.351,0.330,0.312,0.173,0.101,north-northwest,2.8,No
2017/11/26,19:00,0.335,0.213,0.350,0.329,0.312,0.172,0.102,north-northwest,2.3,No
2017/11/26,19:10,0.336,0.213,0.352,0.331,0.313,0.172,0.103,north-northwest,1.8,No
2017/11/26,19:20,0.334,0.213,0.350,0.330,0.312,0.172,0.102,north-northwest,1.2,No
2017/11/26,19:30,0.334,0.212,0.350,0.330,0.312,0.173,0.103,west-northwest,0.7,No
2017/11/26,19:40,0.336,0.212,0.351,0.329,0.312,0.172,0.102,north-northeast,0.9,No
2017/11/26,19:50,0.334,0.212,0.350,0.329,0.312,0.172,0.102,east-northeast,1.1,No
2017/11/26,20:00,0.333,0.213,0.351,0.328,0.313,0.172,0.102,east-northeast,0.6,No
2017/11/26,20:10,0.335,0.214,0.351,0.331,0.312,0.172,0.102,east-northeast,0.6,No
2017/11/26,20:20,0.334,0.213,0.350,0.329,0.312,0.172,0.102,west-northwest,1.6,No
2017/11/26,20:30,0.334,0.212,0.349,0.330,0.312,0.172,0.102,west-northwest,2.3,No
2017/11/26,20:40,0.335,0.213,0.351,0.331,0.312,0.173,0.102,west-northwest,3.1,No
2017/11/26,20:50,0.334,0.213,0.351,0.329,0.313,0.172,0.102,north-northwest,2.0,No
2017/11/26,21:00,0.335,0.212,0.350,0.329,0.313,0.171,0.102,north,1.6,No
2017/11/26,21:10,0.335,0.213,0.352,0.330,0.311,0.172,0.102,north,0.7,No
2017/11/26,21:20,0.334,0.211,0.351,0.329,0.313,0.171,0.102,north-northeast,4.4,No
2017/11/26,21:30,0.335,0.213,0.350,0.329,0.311,0.172,0.102,north-northeast,4.5,No
2017/11/26,21:40,0.334,0.213,0.351,0.330,0.313,0.173,0.102,northeast,4.2,No
2017/11/26,21:50,0.334,0.211,0.350,0.329,0.313,0.173,0.101,north-northeast,4.4,No
2017/11/26,22:00,0.334,0.212,0.351,0.329,0.311,0.172,0.102,north-northeast,4.6,No
2017/11/26,22:10,0.336,0.213,0.351,0.331,0.314,0.172,0.102,north-northeast,4.2,No
2017/11/26,22:20,0.335,0.213,0.349,0.330,0.312,0.172,0.101,north-northeast,6.2,No
2017/11/26,22:30,0.335,0.213,0.353,0.330,0.313,0.172,0.102,north,7.7,No
2017/11/26,22:40,0.335,0.213,0.350,0.329,0.313,0.173,0.102,north,6.1,No
2017/11/26,22:50,0.336,0.213,0.351,0.329,0.313,0.171,0.102,north,4.4,No
2017/11/26,23:00,0.336,0.214,0.352,0.330,0.313,0.172,0.102,north,7.0,No
2017/11/26,23:10,0.335,0.213,0.352,0.330,0.312,0.172,0.102,north,7.5,No
2017/11/26,23:20,0.334,0.212,0.351,0.329,0.312,0.172,0.102,north,6.5,No
2017/11/26,23:30,0.337,0.214,0.351,0.331,0.314,0.173,0.102,north,7.5,No
2017/11/26,23:40,0.335,0.213,0.352,0.330,0.314,0.172,0.102,north-northeast,7.5,No
2017/11/26,23:50,0.335,0.212,0.350,0.329,0.314,0.172,0.102,north-northeast,7.7,No
